Accueil
METAR-TAF:

METAR-TAF

Aéroports :

St. Michael, Alaska, États-Unis

latitude: 63-29-24N, longitude: 162-06-37W, altitude: 30 m

Observation

Le bulletin a été fait il y a 20 minutes, à 21:56 UTC
Vent 12 kt de nord/nord-est
Température -25°C
Humidité 69%
Pression 1009 hPa
Visibilité: 16.1 km
Ciel clair

METAR: PAMK 282156Z AUTO 02012KT 10SM CLR M25/M29 A2981 RMK AO2 SLP099 T12501294 FZRANO

Heure: 13:16 (22:16 UTC)


TAF: absent

Observations et prévisions météorologiques de plus de 4000 aéroports (messages METAR et TAF).

Les stations disponibles sont représentées par des disques jaunes et rouges sur la carte.

Passer la souris dessus pour voir le nom de la station.

Cliquer dessus pour voir les observations et prévisions météorologiques.

Pour changer de carte: cliquez sur les boutons verts avec une croix noire pour zoomer, sur le bouton vert avec un tiret pour effectuer un zoom arrière, ou sur les flèches vertes pour les cartes adjacentes.


METAR-TAF: